"2009-08-12 00:00:00",1143649,4.269,151.7,11.31,0.5,22.89,111.0728,27.65,28.74,13.08,0,111.4,13.07,28.50,113.7
"2009-08-12 00:00:30",1143650,4.294,141.8,9.12,0.362,22.89,111.0419,27.57,28.69,12.98,0,111.4,13.07,28.42,103.8
"2009-08-12 00:01:00",1143651,3.971,159.4,11,0.319,22.89,111.0212,27.52,28.64,13.15,0,111.4,13.07,28.37,121.4
"2009-08-12 00:01:30",1143652,4.226,169.8,5.264,0.243,22.82,110.9783,27.41,28.57,13.11,0,111.4,13.07,28.26,131.8
"2009-08-12 00:02:00",1143653,4.559,153.4,3.197,0.182,22.83,110.9556,27.35,28.5,13.18,0,111.4,13.07,28.20,115.4
"2009-08-12 00:02:30",1143654,4.949,152.1,2.868,0.275,22.84,110.9378,27.31,28.44,13.27,0,111.4,13.07,28.15,114.1
"2009-08-12 00:03:00",1143655,4.344,151.2,6.468,0.282,22.65,110.911,27.24,28.4,13.3,0,111.4,13.07,28.08,113.2
"2009-08-12 00:03:30",1143656,3.972,141.4,6.335,0.416,22.5,110.8805,27.16,28.34,13.39,0,111.4,13.07,28.00,103.4
"2009-08-12 00:04:00",1143657,3.899,131.5,8.92,0.285,22.42,110.8691,27.13,28.27,13.39,0,111.4,13.07,27.97,93.5
"2009-08-12 00:04:30",1143658,3.253,143.8,9.68,0.539,22.33,110.8461,27.07,28.23,13.52,0,111.4,13.07,27.92,105.8
"2009-08-12 00:05:00",1143659,3.715,138.3,3.076,0.178,22.28,110.8404,27.05,28.19,13.38,0,111.4,13.07,27.90,100.3
"2009-08-12 00:05:30",1143660,3.954,133.8,6.536,0.292,22.27,110.8413,27.06,28.16,13.37,0,111.3,13.07,27.90,95.8
"2009-08-12 00:06:00",1143661,4.424,150.7,4.323,0.179,22.33,110.8463,27.07,28.14,13.42,0,111.3,13.07,27.92,112.7
"2009-08-12 00:06:30",1143662,4.054,165.9,13.66,0.328,22.3,110.8522,27.08,28.13,13.43,0,111.3,13.07,27.93,127.9
"2009-08-12 00:07:00",1143663,3.549,178.2,9.73,0.438,22.28,110.8634,27.11,28.13,13.45,0,111.3,13.07,27.96,140.2
"2009-08-12 00:07:30",1143664,3.326,203,5.669,0.247,22.27,110.8814,27.16,28.12,13.45,0,111.3,13.07,28.01,165.0
"2009-08-12 00:08:00",1143665,2.222,196.4,17.73,0.291,22.25,110.8902,27.18,28.14,13.48,0,111.3,13.07,28.03,158.4
"2009-08-12 00:08:30",1143666,1.45,192.2,7.15,0.15,22.25,110.8933,27.19,28.13,13.46,0,111.3,13.07,28.04,154.2
"2009-08-12 00:09:00",1143667,1.757,158.5,14.18,0.39,22.17,110.894,27.19,28.15,13.47,0,111.3,13.07,28.04,120.5
"2009-08-12 00:09:30",1143668,3.085,143.4,5.421,0.275,22.1,110.9026,27.21,28.16,13.39,0,111.3,13.07,28.06,105.4
"2009-08-12 00:10:00",1143669,3.429,140.6,2.576,0.166,22.22,110.9189,27.26,28.19,13.38,0,111.3,13.07,28.10,102.6
"2009-08-12 00:10:30",1143670,3.106,143.5,3.991,0.158,22.33,110.9285,27.28,28.2,13.35,0,111.3,13.07,28.13,105.5
"2009-08-12 00:11:00",1143671,2.852,141.1,4.974,0.228,22.41,110.9297,27.28,28.22,13.38,0,111.3,13.07,28.13,103.1
"2009-08-12 00:11:30",1143672,2.376,149.8,4.586,0.187,22.5,110.9333,27.29,28.23,13.35,0,111.3,13.08,28.14,111.8
"2009-08-12 00:12:00",1143673,2.317,139.9,6.365,0.161,22.52,110.9384,27.31,28.25,13.33,0,111.3,13.08,28.15,101.9
"2009-08-12 00:12:30",1143674,2.288,142.3,11.11,0.348,22.5,110.9497,27.34,28.28,13.3,0,111.3,13.08,28.18,104.3
"2009-08-12 00:13:00",1143675,3.55,150.7,11.08,0.51,22.43,110.9606,27.36,28.28,13.27,0,111.3,13.08,28.21,112.7
"2009-08-12 00:13:30",1143676,4.509,135.8,2.793,0.217,22.38,110.9628,27.37,28.3,13.24,0,111.3,13.08,28.22,97.8
"2009-08-12 00:14:00",1143677,4.711,140.2,3.475,0.306,22.42,110.964,27.37,28.3,13.26,0,111.3,13.08,28.22,102.2
"2009-08-12 00:14:30",1143678,4.43,152,2.987,0.359,22.4,110.9643,27.37,28.33,13.3,0,111.3,13.08,28.22,114.0
"2009-08-12 00:15:00",1143679,4.159,133.8,4.069,0.247,22.3,110.9661,27.38,28.34,13.28,0,111.3,13.08,28.23,95.8
"2009-08-12 00:15:30",1143680,4.29,133,3.86,0.172,22.27,110.9727,27.39,28.35,13.28,0,111.3,13.07,28.24,95.0
"2009-08-12 00:16:00",1143681,4.258,132.9,1.883,0.119,22.26,110.9789,27.41,28.36,13.33,0,111.3,13.08,28.26,94.9
"2009-08-12 00:16:30",1143682,4.848,136.2,1.956,0.191,22.36,110.9867,27.43,28.39,13.45,0,111.3,13.08,28.28,98.2
"2009-08-12 00:17:00",1143683,6.033,148.3,5.12,0.408,22.35,111.0009,27.47,28.39,13.47,0,111.3,13.08,28.31,110.3
"2009-08-12 00:17:30",1143684,6.196,148.3,2.48,0.423,22.34,111.0041,27.48,28.39,13.51,0,111.3,13.08,28.32,110.3
"2009-08-12 00:18:00",1143685,5.806,144.7,3.041,0.644,22.39,111.0055,27.48,28.4,13.59,0,111.3,13.08,28.33,106.7
"2009-08-12 00:18:30",1143686,6.526,148.8,4.934,0.307,22.38,111.0055,27.48,28.42,13.62,0,111.3,13.08,28.33,110.8
"2009-08-12 00:19:00",1143687,6.116,156.2,4.318,0.333,22.41,111.0054,27.48,28.42,13.7,0,111.3,13.08,28.33,118.2
"2009-08-12 00:19:30",1143688,6.212,149.4,1.917,0.172,22.27,111.0114,27.49,28.44,13.54,0,111.3,13.08,28.34,111.4
"2009-08-12 00:20:00",1143689,6.013,147.5,2.259,0.278,22.29,111.0142,27.5,28.45,13.43,0,111.3,13.08,28.35,109.5
"2009-08-12 00:20:30",1143690,6.165,149.9,1.193,0.242,22.33,111.0154,27.5,28.45,13.51,0,111.3,13.08,28.35,111.9
"2009-08-12 00:21:00",1143691,6.223,150.3,1.037,0.149,22.43,111.0165,27.51,28.45,13.51,0,111.3,13.08,28.36,112.3
"2009-08-12 00:21:30",1143692,6.102,147.3,1.991,0.267,22.54,111.0168,27.51,28.48,13.5,0,111.3,13.08,28.36,109.3
"2009-08-12 00:22:00",1143693,5.505,152.5,1.742,0.235,22.55,111.0142,27.5,28.49,13.56,0,111.3,13.08,28.35,114.5
"2009-08-12 00:22:30",1143694,5.198,153.5,1.926,0.147,22.61,111.0064,27.48,28.48,13.62,0,111.3,13.08,28.33,115.5
"2009-08-12 00:23:00",1143695,5.084,151.2,2.716,0.157,22.57,111.0064,27.48,28.47,13.65,0,111.3,13.08,28.33,113.2
"2009-08-12 00:23:30",1143696,4.971,148,2.188,0.209,22.57,110.9971,27.46,28.47,13.65,0,111.3,13.08,28.31,110.0
"2009-08-12 00:24:00",1143697,4.687,147.9,2.603,0.197,22.63,110.9769,27.41,28.45,13.67,0,111.3,13.08,28.25,109.9
"2009-08-12 00:24:30",1143698,4.889,139.8,3.541,0.208,22.7,110.9727,27.39,28.44,13.6,0,111.3,13.08,28.24,101.8
"2009-08-12 00:25:00",1143699,5.021,145.3,2.453,0.334,22.67,110.9584,27.36,28.41,13.54,0,111.3,13.08,28.21,107.3
"2009-08-12 00:25:30",1143700,5.523,142.2,3.063,0.225,22.61,110.9438,27.32,28.41,13.57,0,111.3,13.08,28.17,104.2
"2009-08-12 00:26:00",1143701,5.435,153,4.076,0.468,22.61,110.9391,27.31,28.39,13.59,0,111.3,13.08,28.16,115.0
"2009-08-12 00:26:30",1143702,4.914,144.8,3.225,0.251,22.55,110.938,27.31,28.38,13.68,0,111.3,13.08,28.15,106.8
"2009-08-12 00:27:00",1143703,5.231,150.6,6.041,0.409,22.63,110.9164,27.25,28.33,13.83,0,111.3,13.08,28.10,112.6
"2009-08-12 00:27:30",1143704,5.694,152.2,4.352,0.385,22.5,110.9054,27.22,28.31,13.83,0,111.3,13.08,28.07,114.2
"2009-08-12 00:28:00",1143705,6.003,152.9,5.674,0.237,22.53,110.9051,27.22,28.27,13.79,0,111.3,13.08,28.07,114.9
"2009-08-12 00:28:30",1143706,5.403,146.3,4.206,0.466,22.46,110.9032,27.22,28.27,13.78,0,111.3,13.08,28.06,108.3
"2009-08-12 00:29:00",1143707,5.421,151,2.423,0.307,22.42,110.8967,27.2,28.25,13.71,0,111.3,13.08,28.05,113.0
"2009-08-12 00:29:30",1143708,5.439,154.5,5.167,0.227,22.38,110.8897,27.18,28.24,13.71,0,111.3,13.09,28.03,116.5
"2009-08-12 00:30:00",1143709,5.455,157.8,1.863,0.177,22.37,110.8866,27.17,28.24,13.72,0,111.3,13.09,28.02,119.8
"2009-08-12 00:30:30",1143710,4.599,153.8,2.973,0.192,22.31,110.8816,27.16,28.24,13.63,0,111.3,13.09,28.01,115.8
"2009-08-12 00:31:00",1143711,4.999,152.7,2.762,0.131,22.33,110.8825,27.16,28.23,13.63,0,111.3,13.09,28.01,114.7
"2009-08-12 00:31:30",1143712,4.952,149.7,1.945,0.341,22.33,110.8816,27.16,28.23,13.61,0,111.3,13.09,28.01,111.7
"2009-08-12 00:32:00",1143713,4.438,150.6,2.55,0.171,22.34,110.8829,27.16,28.21,13.63,0,111.3,13.09,28.01,112.6
"2009-08-12 00:32:30",1143714,4.349,151.6,2.315,0.206,22.29,110.8847,27.17,28.21,13.58,0,111.3,13.09,28.02,113.6
"2009-08-12 00:33:00",1143715,4.452,153.7,2.568,0.259,22.27,110.8901,27.18,28.21,13.59,0,111.3,13.09,28.03,115.7
"2009-08-12 00:33:30",1143716,4.449,152.6,2.8,0.25,22.26,110.8979,27.2,28.22,13.58,0,111.3,13.09,28.05,114.6
"2009-08-12 00:34:00",1143717,4.858,146.7,2.192,0.202,22.25,110.9041,27.22,28.22,13.53,0,111.3,13.09,28.07,108.7
"2009-08-12 00:34:30",1143718,4.796,144,1.741,0.176,22.24,110.9096,27.23,28.23,13.52,0,111.3,13.09,28.08,106.0
"2009-08-12 00:35:00",1143719,4.472,142.6,2.161,0.162,22.27,110.9085,27.23,28.24,13.51,0,111.3,13.09,28.08,104.6
"2009-08-12 00:35:30",1143720,4.766,142.5,2.445,0.19,22.25,110.9113,27.24,28.23,13.54,0,111.3,13.09,28.08,104.5
"2009-08-12 00:36:00",1143721,4.755,144.7,1.075,0.097,22.22,110.9129,27.24,28.25,13.53,0,111.3,13.09,28.09,106.7
"2009-08-12 00:36:30",1143722,4.612,147.3,2.45,0.178,22.23,110.9128,27.24,28.25,13.51,0,111.3,13.09,28.09,109.3
"2009-08-12 00:37:00",1143723,4.536,149.3,1.654,0.08,22.25,110.9221,27.26,28.27,13.53,0,111.3,13.09,28.11,111.3
"2009-08-12 00:37:30",1143724,4.661,150.7,2.163,0.208,22.29,110.9275,27.28,28.28,13.52,0,111.3,13.09,28.13,112.7
"2009-08-12 00:38:00",1143725,4.058,145.4,2.313,0.33,22.28,110.9375,27.3,28.29,13.56,0,111.3,13.09,28.15,107.4
"2009-08-12 00:38:30",1143726,4.151,149.3,3.509,0.147,22.28,110.9487,27.33,28.29,13.61,0,111.3,13.09,28.18,111.3
"2009-08-12 00:39:00",1143727,4.574,149.3,2.047,0.229,22.28,110.9544,27.35,28.29,13.52,0,111.3,13.08,28.19,111.3
"2009-08-12 00:39:30",1143728,4.314,150,4.568,0.222,22.32,110.9549,27.35,28.3,13.63,0,111.3,13.08,28.20,112.0
"2009-08-12 00:40:00",1143729,4.473,148,7.868,0.288,22.31,110.9565,27.35,28.32,13.59,0,111.3,13.08,28.20,110.0
"2009-08-12 00:40:30",1143730,4.613,144.7,2.363,0.171,22.31,110.9565,27.35,28.32,13.52,0,111.3,13.08,28.20,106.7
"2009-08-12 00:41:00",1143731,4.305,147.4,1.232,0.243,22.37,110.9571,27.35,28.32,13.49,0,111.3,13.08,28.20,109.4
"2009-08-12 00:41:30",1143732,3.823,148.3,2.117,0.116,22.27,110.959,27.36,28.32,13.48,0,111.3,13.08,28.21,110.3
"2009-08-12 00:42:00",1143733,3.688,146.3,2.266,0.182,22.33,110.9599,27.36,28.33,13.48,0,111.3,13.08,28.21,108.3
"2009-08-12 00:42:30",1143734,4.036,155.8,2.577,0.269,22.31,110.9634,27.37,28.33,13.53,0,111.3,13.08,28.22,117.8
"2009-08-12 00:43:00",1143735,4.069,156.6,2.389,0.211,22.32,110.9667,27.38,28.34,13.65,0,111.3,13.08,28.23,118.6
"2009-08-12 00:43:30",1143736,3.651,155,3.512,0.166,22.31,110.9693,27.39,28.36,13.66,0,111.3,13.08,28.23,117.0
"2009-08-12 00:44:00",1143737,3.705,150.8,1.552,0.206,22.3,110.9728,27.39,28.36,13.54,0,111.3,13.08,28.24,112.8
"2009-08-12 00:44:30",1143738,4.174,154.6,4.062,0.164,22.31,110.9827,27.42,28.36,13.53,0,111.3,13.08,28.27,116.6
"2009-08-12 00:45:00",1143739,4.147,157.5,2.96,0.139,22.31,110.9966,27.46,28.37,13.67,0,111.3,13.09,28.30,119.5
"2009-08-12 00:45:30",1143740,4.034,151.8,4.497,0.108,22.32,110.9974,27.46,28.37,13.57,0,111.3,13.09,28.31,113.8
"2009-08-12 00:46:00",1143741,4.45,154,3.054,0.272,22.31,110.9979,27.46,28.39,13.47,0,111.3,13.09,28.31,116.0
"2009-08-12 00:46:30",1143742,4.279,161.1,2.414,0.391,22.34,110.9976,27.46,28.4,13.51,0,111.3,13.09,28.31,123.1
"2009-08-12 00:47:00",1143743,3.81,151.8,4.078,0.196,22.27,110.9989,27.46,28.42,13.42,0,111.3,13.09,28.31,113.8
"2009-08-12 00:47:30",1143744,4.479,146.8,2.448,0.213,22.32,111.0032,27.47,28.42,13.4,0,111.3,13.09,28.32,108.8
"2009-08-12 00:48:00",1143745,4.574,149,2.487,0.094,22.28,111.0037,27.47,28.43,13.42,0,111.3,13.09,28.32,111.0
"2009-08-12 00:48:30",1143746,4.578,147.2,1.516,0.113,22.3,111.0074,27.48,28.43,13.34,0,111.3,13.09,28.33,109.2
"2009-08-12 00:49:00",1143747,4.785,147.5,1.997,0.118,22.37,111.0076,27.48,28.44,13.29,0,111.3,13.09,28.33,109.5
"2009-08-12 00:49:30",1143748,4.242,145.5,2.79,0.245,22.38,111.0083,27.49,28.45,13.27,0,111.3,13.09,28.33,107.5
"2009-08-12 00:50:00",1143749,3.858,155.1,2.603,0.132,22.34,111.007,27.48,28.45,13.36,0,111.3,13.09,28.33,117.1
"2009-08-12 00:50:30",1143750,4.129,155.5,1.252,0.266,22.33,111.0085,27.49,28.46,13.4,0,111.3,13.09,28.33,117.5
"2009-08-12 00:51:00",1143751,4.222,159.7,3.451,0.175,22.37,111.0079,27.49,28.45,13.44,0,111.3,13.09,28.33,121.7
"2009-08-12 00:51:30",1143752,3.759,155.2,5.24,0.248,22.35,111.0082,27.49,28.45,13.44,0,111.3,13.09,28.33,117.2
"2009-08-12 00:52:00",1143753,3.335,157.6,4.237,0.184,22.4,111.0085,27.49,28.46,13.5,0,111.3,13.09,28.33,119.6
"2009-08-12 00:52:30",1143754,3.686,158.1,3.1,0.259,22.38,111.0099,27.49,28.47,13.54,0,111.3,13.09,28.34,120.1
"2009-08-12 00:53:00",1143755,3.576,156.8,3.172,0.131,22.35,111.0091,27.49,28.46,13.59,0,111.3,13.09,28.34,118.8
"2009-08-12 00:53:30",1143756,3.604,157.3,2.641,0.241,22.38,111.0105,27.49,28.47,13.59,0,111.3,13.09,28.34,119.3
"2009-08-12 00:54:00",1143757,3.997,167.3,6.034,0.221,22.36,111.0094,27.49,28.48,13.63,0,111.3,13.09,28.34,129.3
"2009-08-12 00:54:30",1143758,3.477,167.1,3.103,0.166,22.38,111.0061,27.48,28.47,13.68,0,111.3,13.09,28.33,129.1
"2009-08-12 00:55:00",1143759,3.246,170.2,1.58,0.16,22.41,111.003,27.47,28.47,13.69,0,111.3,13.09,28.32,132.2
"2009-08-12 00:55:30",1143760,3.259,174.5,1.834,0.095,22.43,111.0007,27.47,28.47,13.68,0,111.3,13.09,28.31,136.5
"2009-08-12 00:56:00",1143761,3.069,169.3,2.737,0.175,22.4,111.001,27.47,28.48,13.73,0,111.3,13.09,28.32,131.3
"2009-08-12 00:56:30",1143762,2.915,167.3,4.914,0.181,22.36,111.0007,27.47,28.47,13.67,0,111.3,13.08,28.31,129.3
"2009-08-12 00:57:00",1143763,2.733,172.4,3.206,0.287,22.4,111.0007,27.47,28.46,13.64,0,111.3,13.08,28.31,134.4
"2009-08-12 00:57:30",1143764,2.599,169.1,5.223,0.113,22.43,111.0007,27.47,28.47,13.69,0,111.3,13.08,28.31,131.1
"2009-08-12 00:58:00",1143765,2.74,170.4,2.839,0.214,22.42,111.0007,27.47,28.47,13.73,0,111.3,13.08,28.31,132.4
"2009-08-12 00:58:30",1143766,2.967,174,4.296,0.123,22.35,111.0007,27.47,28.45,13.48,0,111.3,13.08,28.31,136.0
"2009-08-12 00:59:00",1143767,3.174,156,4.262,0.262,22.37,111.0004,27.47,28.47,13.43,0,111.3,13.08,28.31,118.0
"2009-08-12 00:59:30",1143768,3.482,162.5,4.34,0.069,22.35,111.0007,27.47,28.46,13.33,0,111.3,13.08,28.31,124.5
"2009-08-12 01:00:00",1143769,3.126,166.3,2.387,0.15,22.39,111.0007,27.47,28.44,13.29,0,111.3,13.08,28.31,128.3
"2009-08-12 01:00:30",1143770,2.824,158.3,1.309,0.119,22.39,111.0001,27.47,28.45,13.27,0,111.3,13.08,28.31,120.3
"2009-08-12 01:01:00",1143771,2.675,156.9,1.865,0.194,22.38,110.9978,27.46,28.46,13.18,0,111.3,13.08,28.31,118.9
"2009-08-12 01:01:30",1143772,2.249,168.4,4.324,0.163,22.35,110.9971,27.46,28.46,13.21,0,111.3,13.08,28.31,130.4
"2009-08-12 01:02:00",1143773,2.395,166,3.807,0.305,22.36,110.9957,27.45,28.44,13.23,0,111.3,13.09,28.30,128.0
"2009-08-12 01:02:30",1143774,2.729,153.1,2.463,0.177,22.36,110.9921,27.44,28.44,13.22,0,111.3,13.09,28.29,115.1
"2009-08-12 01:03:00",1143775,2.376,156,4.063,0.187,22.33,110.9909,27.44,28.44,13.23,0,111.3,13.09,28.29,118.0
"2009-08-12 01:03:30",1143776,2.18,143.9,4.399,0.098,22.35,110.9884,27.44,28.43,13.24,0,111.3,13.09,28.28,105.9
"2009-08-12 01:04:00",1143777,2.174,147.3,2.471,0.121,22.38,110.9901,27.44,28.44,13.27,0,111.3,13.09,28.29,109.3
"2009-08-12 01:04:30",1143778,2.39,143.6,1.755,0.059,22.39,110.9946,27.45,28.44,13.29,0,111.3,13.09,28.30,105.6
"2009-08-12 01:05:00",1143779,2.408,141.7,2.166,0.183,22.42,110.9968,27.46,28.43,13.29,0,111.3,13.09,28.30,103.7
"2009-08-12 01:05:30",1143780,2.557,141,2.883,0.108,22.34,110.9999,27.46,28.44,13.3,0,111.3,13.09,28.31,103.0
"2009-08-12 01:06:00",1143781,2.776,140.6,3.476,0.146,22.37,111.0002,27.47,28.45,13.36,0,111.3,13.09,28.31,102.6
"2009-08-12 01:06:30",1143782,2.581,144.8,6.883,0.229,22.36,111.0005,27.47,28.45,13.39,0,111.3,13.09,28.31,106.8
"2009-08-12 01:07:00",1143783,3.233,149.2,2.8,0.167,22.36,111.0007,27.47,28.45,13.45,0,111.3,13.09,28.31,111.2
"2009-08-12 01:07:30",1143784,3.011,149.8,4.783,0.131,22.41,111.0007,27.47,28.45,13.52,0,111.3,13.09,28.31,111.8
"2009-08-12 01:08:00",1143785,2.939,149.1,2.443,0.193,22.4,111.0007,27.47,28.46,13.41,0,111.3,13.09,28.31,111.1
"2009-08-12 01:08:30",1143786,3.033,150.8,1.034,0.123,22.39,111.0007,27.47,28.47,13.26,0,111.3,13.09,28.31,112.8
"2009-08-12 01:09:00",1143787,2.958,148.7,2.94,0.124,22.44,111.0007,27.47,28.47,13.22,0,111.3,13.09,28.31,110.7
"2009-08-12 01:09:30",1143788,2.809,147,1.266,0.115,22.46,111.0007,27.47,28.45,13.2,0,111.3,13.09,28.31,109.0
"2009-08-12 01:10:00",1143789,2.693,153,2.46,0.083,22.48,111.0011,27.47,28.46,13.23,0,111.3,13.09,28.32,115.0
"2009-08-12 01:10:30",1143790,3.195,151.3,2.241,0.161,22.41,111.0007,27.47,28.46,13.4,0,111.3,13.09,28.31,113.3
"2009-08-12 01:11:00",1143791,3.025,144.7,2.151,0.128,22.45,111.0011,27.47,28.47,13.47,0,111.3,13.09,28.32,106.7
"2009-08-12 01:11:30",1143792,3.281,148.9,1.87,0.179,22.46,111.0014,27.47,28.47,13.5,0,111.3,13.09,28.32,110.9
"2009-08-12 01:12:00",1143793,3.317,152.5,1.702,0.122,22.58,111.0011,27.47,28.46,13.57,0,111.3,13.09,28.32,114.5
"2009-08-12 01:12:30",1143794,3.269,154.1,2.783,0.173,22.64,111.0008,27.47,28.45,13.82,0,111.3,13.09,28.31,116.1
"2009-08-12 01:13:00",1143795,3.321,152.4,1.795,0.065,22.76,110.9994,27.46,28.46,13.81,0,111.3,13.09,28.31,114.4
"2009-08-12 01:13:30",1143796,3.27,154.8,1.686,0.074,22.83,110.9919,27.44,28.45,13.55,0,111.3,13.09,28.29,116.8
"2009-08-12 01:14:00",1143797,3.563,152.7,2.214,0.147,22.79,110.9791,27.41,28.44,13.68,0,111.3,13.09,28.26,114.7
"2009-08-12 01:14:30",1143798,3.41,157.4,4.17,0.061,22.8,110.9752,27.4,28.44,13.77,0,111.3,13.08,28.25,119.4
"2009-08-12 01:15:00",1143799,3.351,162.3,0.637,0.077,22.78,110.9723,27.39,28.42,13.38,0,111.3,13.08,28.24,124.3
"2009-08-12 01:15:30",1143800,3.616,161.6,0.99,0.108,22.64,110.9734,27.4,28.42,13.36,0,111.3,13.08,28.24,123.6
"2009-08-12 01:16:00",1143801,3.618,159.9,1.632,0.154,22.66,110.9574,27.36,28.38,13.9,0,111.3,13.08,28.20,121.9
"2009-08-12 01:16:30",1143802,3.582,160.4,1.413,0.076,22.7,110.9447,27.32,28.37,14.11,0,111.3,13.08,28.17,122.4
"2009-08-12 01:17:00",1143803,3.735,159.8,1.326,0.157,22.81,110.9428,27.32,28.35,14.14,0,111.3,13.08,28.17,121.8
"2009-08-12 01:17:30",1143804,3.581,157.3,1.955,0.136,22.78,110.9343,27.3,28.34,14.08,0,111.3,13.08,28.14,119.3
"2009-08-12 01:18:00",1143805,3.664,164.9,1.058,0.141,22.84,110.9127,27.24,28.32,14.02,0,111.3,13.08,28.09,126.9
"2009-08-12 01:18:30",1143806,3.84,169.9,2.409,0.119,22.86,110.9066,27.22,28.3,13.82,0,111.3,13.09,28.07,131.9
"2009-08-12 01:19:00",1143807,3.874,172.4,1.812,0.172,22.79,110.8866,27.17,28.27,13.59,0,111.3,13.09,28.02,134.4
"2009-08-12 01:19:30",1143808,3.944,172.9,1.541,0.115,22.78,110.8754,27.14,28.24,13.55,0,111.3,13.09,27.99,134.9
"2009-08-12 01:20:00",1143809,4.059,171.2,2.214,0.128,22.78,110.8631,27.11,28.21,13.66,0,111.3,13.09,27.96,133.2
"2009-08-12 01:20:30",1143810,4.816,164.7,1.788,0.25,22.65,110.8431,27.06,28.17,14.2,0,111.3,13.09,27.91,126.7
"2009-08-12 01:21:00",1143811,4.74,170.5,4.199,0.08,22.74,110.8367,27.05,28.16,14.34,0,111.3,13.09,27.89,132.5
"2009-08-12 01:21:30",1143812,4.575,170.9,1.631,0.094,22.67,110.8117,26.98,28.12,14.42,0,111.3,13.09,27.83,132.9
"2009-08-12 01:22:00",1143813,4.644,171,1.72,0.186,22.68,110.8072,26.97,28.09,15.23,0,111.3,13.09,27.82,133.0
"2009-08-12 01:22:30",1143814,4.972,169.5,1.062,0.071,22.76,110.7823,26.91,28.06,15.46,0,111.3,13.09,27.75,131.5
"2009-08-12 01:23:00",1143815,5.119,168,0.989,0.064,22.74,110.7744,26.88,28.03,16.27,0,111.3,13.1,27.73,130.0
"2009-08-12 01:23:30",1143816,4.876,169.2,0.778,0.069,22.9,110.7623,26.85,28,16.46,0,111.3,13.09,27.70,131.2
"2009-08-12 01:24:00",1143817,4.911,166.8,1.449,0.127,22.88,110.7427,26.8,27.97,16.7,0,111.3,13.1,27.65,128.8
"2009-08-12 01:24:30",1143818,4.704,167.5,1.006,0.071,22.9,110.7326,26.78,27.93,16.69,0,111.3,13.1,27.62,129.5
"2009-08-12 01:25:00",1143819,4.657,166,2.111,0.13,22.9,110.7102,26.72,27.91,16.84,0,111.3,13.1,27.56,128.0
"2009-08-12 01:25:30",1143820,4.693,166.6,1.54,0.138,22.93,110.7068,26.71,27.88,16.93,0,111.3,13.1,27.56,128.6
"2009-08-12 01:26:00",1143821,4.607,167.6,1.276,0.102,22.95,110.686,26.66,27.83,16.62,0,111.3,13.1,27.50,129.6
"2009-08-12 01:26:30",1143822,4.566,169.3,1.169,0.08,22.97,110.6734,26.63,27.82,16.47,0,111.3,13.1,27.47,131.3
"2009-08-12 01:27:00",1143823,4.674,170.7,0.831,0.067,23.01,110.6622,26.6,27.79,16.18,0,111.3,13.1,27.44,132.7
"2009-08-12 01:27:30",1143824,4.672,169.2,0.744,0.062,23.03,110.6426,26.55,27.74,15.94,0,111.2,13.1,27.39,131.2
"2009-08-12 01:28:00",1143825,4.704,169,0.801,0.075,23.05,110.6383,26.54,27.71,16.1,0,111.2,13.1,27.38,131.0
"2009-08-12 01:28:30",1143826,4.788,167.7,1.017,0.101,23.06,110.622,26.49,27.68,16.22,0,111.2,13.1,27.34,129.7
"2009-08-12 01:29:00",1143827,4.624,168.9,1.119,0.133,23.08,110.6169,26.48,27.65,16.09,0,111.2,13.1,27.32,130.9
"2009-08-12 01:29:30",1143828,4.618,165.3,1.515,0.09,23.03,110.6088,26.46,27.61,16.09,0,111.2,13.1,27.30,127.3
"2009-08-12 01:30:00",1143829,4.38,168.6,0.733,0.058,23.05,110.5971,26.43,27.59,16.06,0,111.2,13.1,27.27,130.6
"2009-08-12 01:30:30",1143830,4.348,168.4,0.889,0.051,23.05,110.5978,26.43,27.55,15.77,0,111.2,13.1,27.28,130.4
"2009-08-12 01:31:00",1143831,4.45,168.7,0.688,0.12,23,110.5924,26.42,27.52,16.32,0,111.2,13.1,27.26,130.7
"2009-08-12 01:31:30",1143832,4.907,169.4,0.575,0.08,23.03,110.5711,26.36,27.51,17.16,0,111.2,13.1,27.21,131.4
"2009-08-12 01:32:00",1143833,4.892,170.8,0.971,0.07,22.99,110.5669,26.35,27.46,17.39,0,111.2,13.09,27.20,132.8
"2009-08-12 01:32:30",1143834,4.716,169.9,0.507,0.035,22.97,110.5662,26.35,27.44,17.46,0,111.2,13.09,27.19,131.9
"2009-08-12 01:33:00",1143835,4.772,168.9,0.613,0.04,22.97,110.5462,26.3,27.43,17.35,0,111.2,13.1,27.14,130.9
"2009-08-12 01:33:30",1143836,4.809,170.2,1.127,0.047,22.93,110.5412,26.29,27.41,17.51,0,111.2,13.1,27.13,132.2
"2009-08-12 01:34:00",1143837,4.883,170.3,0.602,0.059,22.96,110.541,26.28,27.37,17.53,0,111.2,13.1,27.13,132.3
"2009-08-12 01:34:30",1143838,4.906,170.6,1.061,0.043,22.91,110.5411,26.29,27.36,17.49,0,111.2,13.1,27.13,132.6
"2009-08-12 01:35:00",1143839,4.987,167.6,1.13,0.05,22.88,110.5344,26.27,27.33,17.49,0,111.2,13.1,27.11,129.6
"2009-08-12 01:35:30",1143840,5.094,166.6,0.572,0.06,22.8,110.5203,26.23,27.32,17.63,0,111.2,13.1,27.08,128.6
"2009-08-12 01:36:00",1143841,5.307,164.5,0.801,0.054,22.91,110.5117,26.21,27.3,17.89,0,111.2,13.1,27.05,126.5
"2009-08-12 01:36:30",1143842,5.304,164.7,0.817,0.076,22.93,110.5086,26.2,27.28,18.11,0,111.2,13.1,27.04,126.7
"2009-08-12 01:37:00",1143843,5.115,165.8,1.185,0.068,22.92,110.5086,26.2,27.27,18,0,111.2,13.1,27.04,127.8
"2009-08-12 01:37:30",1143844,5.475,164,0.717,0.159,22.97,110.5027,26.19,27.23,18.31,0,111.2,13.1,27.03,126.0
"2009-08-12 01:38:00",1143845,5.783,165,0.529,0.077,22.95,110.4842,26.14,27.24,18.5,0,111.2,13.11,26.98,127.0
"2009-08-12 01:38:30",1143846,5.833,165.9,0.806,0.055,22.99,110.4766,26.12,27.22,18.44,0,111.2,13.1,26.96,127.9
"2009-08-12 01:39:00",1143847,5.711,166.4,0.612,0.087,23.01,110.4749,26.11,27.19,18.49,0,111.2,13.11,26.96,128.4
"2009-08-12 01:39:30",1143848,5.655,168.3,0.773,0.033,23.08,110.4738,26.11,27.18,18.52,0,111.2,13.11,26.96,130.3
"2009-08-12 01:40:00",1143849,5.494,167.8,0.748,0.095,23.12,110.453,26.06,27.15,18.41,0,111.2,13.11,26.90,129.8
"2009-08-12 01:40:30",1143850,5.433,168.1,1.978,0.091,23.08,110.4432,26.03,27.14,18.37,0,111.2,13.11,26.88,130.1
"2009-08-12 01:41:00",1143851,5.669,168.1,0.982,0.137,23.09,110.4412,26.03,27.14,18.4,0,111.2,13.11,26.87,130.1
"2009-08-12 01:41:30",1143852,5.384,168.7,1.301,0.075,23.11,110.4412,26.03,27.1,18.3,0,111.2,13.11,26.87,130.7
"2009-08-12 01:42:00",1143853,5.592,168.3,1.204,0.08,23.11,110.4336,26.01,27.09,18.4,0,111.2,13.11,26.85,130.3
"2009-08-12 01:42:30",1143854,5.617,170.7,1.1,0.047,23.13,110.4192,25.97,27.06,18.35,0,111.2,13.11,26.81,132.7
"2009-08-12 01:43:00",1143855,5.611,171.4,0.811,0.117,23.06,110.4106,25.95,27.04,18.34,0,111.2,13.11,26.79,133.4
"2009-08-12 01:43:30",1143856,5.545,170.7,0.671,0.095,23.07,110.4103,25.95,27.04,18.5,0,111.2,13.11,26.79,132.7
"2009-08-12 01:44:00",1143857,5.624,171.1,1.116,0.064,23.06,110.4147,25.96,27.03,18.59,0,111.2,13.11,26.80,133.1
"2009-08-12 01:44:30",1143858,5.728,172.6,1.064,0.142,23.01,110.4144,25.96,27.01,18.68,0,111.2,13.11,26.80,134.6
"2009-08-12 01:45:00",1143859,6.155,171.1,0.795,0.174,22.97,110.4235,25.98,26.99,19.1,0,111.2,13.12,26.83,133.1
"2009-08-12 01:45:30",1143860,6.597,170.5,1.413,0.112,22.95,110.4113,25.95,27,19.86,0,111.2,13.12,26.79,132.5
"2009-08-12 01:46:00",1143861,6.427,170,1.499,0.127,22.97,110.4062,25.94,26.98,19.81,0,111.2,13.12,26.78,132.0
"2009-08-12 01:46:30",1143862,6.374,167.9,0.99,0.232,23.02,110.4037,25.93,26.97,19.69,0,111.2,13.12,26.77,129.9